Welcome to the New NWS' Forecast!
Most changes are behind the scenes, but click here for differences you might notice.
Latest weather observations around

Haleyville, Posey Field Airport (K1M4)

Using English Units (Switch to International System of Units)
Date/ Time (CST) Wind (mph) Vis. (mi) Weather Sky Cond. Temp (°F) Rel. Humidity Wind Chill (°F) Heat Index (°F) Pressure Precip. (in)
Air Dwpt 6 hour Altimeter (inHg) Sea level (inHg) 1 hr 3 hr 6 hr
Max Min
Jan 20 10:56 SSW 8 10 Partly Cloudy SCT065 57 34     42%     30.28 30.36      
Jan 20 09:56 SSW 10 10 Mostly Cloudy BKN060 54 29     38%     30.29 30.37      
Jan 20 08:56 S 6 10 Cloudy OVC060 48 26     42% 45     30.35      
Jan 20 07:56 S 6 10 Cloudy OVC055 44 24     45% 41   30.27 30.35      
Jan 20 06:56 SSW 6 10 Cloudy OVC050 43 25     49% 39   30.27 30.35      
Jan 20 05:56 S 5 10 Cloudy OVC044 44 24     45% 41   30.25 30.33      
Jan 20 04:56 S 7 10 Cloudy OVC040 44 23     43% 40   30.24 30.31      
Jan 20 03:56 SSE 5 10 Cloudy OVC038 43 23     45% 40   30.24 30.32      
Jan 20 02:56 S 5 10 Cloudy OVC038 43 23     45% 40   30.24 30.31      
Jan 20 01:56 S 6 10 Cloudy OVC038 43 22     43% 39   30.24 30.32      
Jan 20 00:56 S 6 10 Cloudy OVC036 43 22     43% 39   30.23 30.31      
Jan 19 23:56 S 8 10 Cloudy OVC034 43 21     41% 38   30.24 30.31      
Jan 19 22:56 S 7 10 Cloudy OVC036 43 22     43% 39   30.24 30.31      
Jan 19 21:56 S 7 10 Cloudy OVC034 43 22     43% 39   30.24 30.32      
Jan 19 20:56 SSW 3 10 Cloudy OVC036 43 21     41% 41   30.25 30.32      
Jan 19 19:56 SW 7 10 Cloudy OVC036 43 21     41% 39   30.25 30.33      
Jan 19 18:56 SW 6 10 Cloudy OVC036 44 22     41% 41   30.24 30.32      
Jan 19 17:56 SSW 6 10 Cloudy OVC036 44 24     45% 41   30.23 30.3      
Jan 19 16:56 SW 6 10 Cloudy OVC040 46 23     40% 43   30.24 30.31      
Jan 19 15:56 WSW 5 10 Cloudy OVC040 49 23     36% 47   30.25 30.32      
Jan 19 14:56 6 10 Mostly Clear FEW040 50 20     30% 48   30.25 30.33      
Jan 19 13:56 SW 7 10 Clear CLR 50 16     26% 47   30.26 30.33      
Jan 19 12:56 SSW 8 10 Clear CLR 47 14     26% 43   30.28 30.36      
Jan 19 11:56 SW 6 10 Clear CLR 44 12     27% 41   30.32 30.38      
Jan 19 10:56 SSW 10 10 Clear CLR 40 13     33% 33   30.35 30.42      
Jan 19 08:56 SSW 3 10 Clear CLR 34 19     54% 31   30.36 30.43      
Jan 19 07:56 Calm 10 Clear CLR 24 21     88%     30.35 30.42      
Jan 19 06:56 Calm 10 Clear CLR 13 12     96%     30.34 30.41      
Jan 19 05:56 Calm 10 Clear CLR 14 13     95%     30.34 30.41      
Jan 19 04:56 Calm 10 Clear CLR 13 11     92%     30.34 30.41      
Jan 19 03:56 Calm 10 Clear CLR 14 12     92%     30.33 30.4      
Jan 19 02:56 Calm 10 Clear CLR 15 13     91%     30.35 30.43      
Jan 19 01:56 SSW 3 10 Clear CLR 15 12     87% 10   30.35 30.42      
Jan 19 00:56 Calm 10 Clear CLR 18 14     84%     30.35 30.42      
Jan 18 23:56 Calm 10 Clear CLR 19 15     84%     30.37 30.44      
Jan 18 22:56 Calm 10 Clear CLR 20 16     84%     30.38 30.46      
Jan 18 21:56 Calm 10 Clear CLR 22 16     78%     30.39 30.47      
Jan 18 19:56 Calm 10 Clear CLR 23 16     74%     30.37 30.44      
Jan 18 18:56 Calm 10 Clear CLR 26 15     63%     30.38 30.46      
Jan 18 17:56 Calm 10 Clear CLR 28 14     55%     30.39 30.46      
Jan 18 16:56 Calm 10 Clear CLR 35 10     35%     30.41 30.48      
Jan 18 15:56 Calm 10 Clear CLR 38 10     31%     30.42 30.49      
Jan 18 14:56 W 5 10 Clear CLR 38 11     32% 34   30.43 30.5      
Jan 18 13:56 W 7 10 Clear CLR 37 12     35% 32   30.45 30.52      
Jan 18 12:56 W 7 10 Clear CLR 34 9     35% 28   30.47 30.55      
Jan 18 11:56 WNW 5 10 Clear CLR 32 9     38% 27   30.5 30.58      
Jan 18 10:56 Calm 10 Clear CLR 34 10     36%     30.53 30.6      
Jan 18 09:56 5 10 Clear CLR 31 16     53% 26   30.55 30.63      
Jan 18 08:56 N 3 10 Clear CLR 24 15     68% 20   30.54 30.61      
Jan 18 07:56 Calm 10 Clear CLR 17 12     80%     30.53 30.6      
Jan 18 06:56 Calm 10 Clear CLR 9 7     91%     30.53 30.6      
Jan 18 05:56 Calm 10 Clear CLR 10 8     91%     30.52 30.59      
Jan 18 04:56 Calm 10 Clear CLR 8 7     95%     30.52 30.59      
Jan 18 03:56 NNE 3 10 Clear CLR 8 6     91% 2   30.52 30.6      
Jan 18 02:56 Calm 10 Clear CLR 9 7     91%     30.54 30.62      
Jan 18 01:56 NNW 3 10 Clear CLR 10 8     91% 4   30.54 30.62      
Jan 17 23:56 NNE 5 10 Clear CLR 12 9     87% 4   30.55 30.63      
Jan 17 22:56 Calm 10 Clear CLR 11 8     88%     30.56 30.65      
Jan 17 21:56 N 3 10 Clear CLR 14 10     84% 8   30.57 30.64      
Jan 17 20:56 NNW 5 10 Clear CLR 14 10     84% 6   30.56 30.64      
Jan 17 19:56 NW 6 10 Clear CLR 15 10     80% 6   30.57 30.65      
Jan 17 18:56 NNW 3 10 Clear CLR 16 10     77% 11   30.57 30.65      
Jan 17 17:56 NNW 3 10 Clear CLR 18 10     71% 13   30.57 30.65      
Jan 17 16:56 NNW 10 10 Clear CLR 22 11     62% 11   30.57 30.64      
Jan 17 15:56 NNW 7 10 Clear CLR 25 12     57% 17   30.58 30.65      
Jan 17 14:56 N 10 10 Clear CLR 25 12     57% 15   30.58 30.65      
Jan 17 13:56 NNW 10 10 Clear CLR 24 13     62% 14   30.58 30.65      
Jan 17 12:56 N 11 10 Clear CLR 23 12     62% 12   30.59 30.66      
Jan 17 11:56 NNW 11 10 Clear CLR 22 11     62% 10   30.62 30.69     0
Jun 12 02:56 S 5 10 Clear CLR 72 69     91%   73 30.14 30.15      
Jun 11 11:56 SSW 10 10 Partly Cloudy SCT075 85 70     61%   89 30.18 30.19      
Jun 10 23:56 ESE 3 10 Clear CLR 66 63     90%       30.14      
Jun 10 12:56 6 10 Partly Cloudy SCT055 83 60     46%   83 30.11 30.14      
Jun 09 04:56 Calm 8 Clear CLR 54 53     97%     29.96 30      
Jun 08 23:56 N 3 10 Clear CLR 60 56     86%     29.97 30.01      
Jun 06 12:56 Calm 10 Mostly Cloudy BKN085 BKN110 71 69     93%   72 29.85 29.87 0   0
Jun 06 00:48 Calm 3 Fog/Mist FEW120 70 70     100%     29.85   0    
Jun 05 22:37 S 5 10 Mostly Cloudy BKN005 72 70     94%   73 29.85        
Notice The following observation data may not be complete
Jun 05 20:09   10 Partly Cloudy FEW015 SCT025          %